Location: Peterborough
(44.3048°N, 78.3199°W)
Time: 03:26:46
(UTC-04:00)

ISS - Pass Details

Date: 21 May 2025
Orbit: 415 x 418 km, 51.6° (Epoch: 20 June)

Event Time Altitude Azimuth Distance (km) Brightness Sun altitude
Rises 22:23:10 0° 302° (WNW) 2,362 1.5 -14.9°
Reaches altitude 10° 22:25:18 10° 306° (NW) 1,495 0.3 -15.1°
Maximum altitude 22:28:36 55° 26° (NNE) 505 -3.3 -15.5°
Enters shadow 22:30:09 27° 94° (E) 833 -2.6 -15.7°
